ECMWFNIL_sfc_temp_021.txt.gz
Temp
45 44 44 43 43 42 41 40 40 39 38 38 37 36 35 35 34 33 33 32 31 31 30 30 30 30 30 29 28 28 28 26 26 26 26 26 26 26 27 26 25 25
44 44 43 43 42 41 41 41 40 39 38 37 37 36 35 34 33 33 32 31 31 30 30 29 29 29 28 28 27 27 27 26 25 28 25 25 26 25 25 25 25 25
43 43 43 42 42 40 40 39 39 38 38 37 35 35 33 34 33 32 31 31 30 29 29 29 28 28 27 27 26 27 26 25 24 25 25 25 25 25 25 25 24 24
43 43 43 42 41 40 39 38 37 36 35 34 34 34 34 33 32 31 30 31 29 28 28 28 27 27 27 26 26 26 25 25 25 24 24 25 25 25 25 24 25 25
42 42 42 41 40 39 38 37 36 35 35 35 33 33 32 31 31 30 30 29 28 28 27 27 27 26 26 26 25 25 24 24 24 24 24 24 24 25 25 25 23 23
41 41 40 40 39 38 37 37 36 35 34 33 33 32 32 31 31 30 29 28 27 27 27 26 26 25 25 25 25 24 24 24 24 23 23 23 23 24 25 25 22 22
40 40 39 38 37 37 37 36 35 35 34 34 32 31 31 30 30 29 28 28 27 27 26 26 25 25 25 25 24 23 23 24 23 23 23 23 23 22 23 23 22 22
39 39 38 37 36 36 36 35 34 34 33 32 32 31 30 30 29 28 28 27 26 26 26 25 25 25 24 24 24 23 23 24 23 23 22 22 22 22 22 23 22 21
37 37 37 35 36 35 35 34 34 33 32 32 31 30 30 30 29 28 27 27 26 26 25 25 25 24 24 24 24 23 22 23 24 23 22 22 21 21 21 21 20 20
36 36 35 35 35 35 35 34 33 32 31 32 31 30 29 28 28 27 27 26 26 25 25 24 24 24 24 24 23 23 22 23 23 23 23 22 22 21 21 20 20 19
36 35 35 34 35 34 34 33 32 31 31 31 30 29 28 27 27 27 26 26 25 25 24 24 24 24 23 23 23 23 22 22 22 23 22 22 22 21 22 20 20 19
35 35 35 34 34 34 33 32 31 31 30 30 29 29 27 27 27 26 26 26 25 25 24 24 23 23 23 23 22 22 22 22 23 22 22 22 22 21 20 20 20 20
35 35 35 35 34 34 32 31 30 30 29 28 28 28 26 26 25 25 25 24 24 23 23 23 23 22 21 21 20 20 21 22 22 22 22 22 21 21 21 21 21 21
36 35 35 35 34 33 31 30 29 28 28 28 27 26 25 25 24 24 23 23 22 22 22 21 21 21 20 20 19 19 19 21 21 21 21 21 21 22 22 22 22 22
35 34 34 33 32 30 29 28 28 27 26 26 25 25 25 24 23 22 21 21 20 21 20 20 20 20 20 20 19 19 19 20 21 21 21 21 21 22 22 22 22 22
34 33 32 31 30 29 28 27 26 25 24 23 23 23 22 21 21 21 20 20 19 18 19 19 19 19 22 25 23 20 20 20 20 20 21 21 20 21 21 23 23 23
32 31 30 29 29 28 26 25 24 23 22 21 20 19 18 18 19 18 18 19 18 18 17 18 19 20 24 26 26 26 22 21 20 20 20 21 21 21 21 22 23 24
31 30 28 27 26 25 24 23 22 21 20 19 17 17 17 17 17 18 17 18 18 18 18 18 18 22 25 27 27 28 26 21 20 20 21 21 22 22 22 23 23 23
29 28 26 25 25 24 23 21 20 20 18 17 16 17 16 15 16 16 15 17 17 17 17 18 18 24 26 27 28 28 28 26 23 22 22 22 22 23 22 23 23 22
28 26 26 25 24 23 21 20 19 19 18 17 16 15 15 15 15 14 15 15 16 17 17 18 19 24 27 27 27 27 28 27 24 23 22 22 23 23 23 23 22 22
27 26 25 24 22 21 20 19 19 18 17 16 15 15 15 14 14 13 14 15 16 17 17 18 18 24 26 26 26 27 27 27 23 23 22 22 23 23 22 22 22 22
26 25 24 22 21 19 19 19 18 17 16 15 15 15 14 14 14 13 14 15 16 16 16 16 18 24 25 25 25 26 26 24 23 22 21 21 21 22 22 22 22 22
27 25 23 21 20 19 18 18 18 16 16 15 14 14 13 13 14 14 15 15 15 15 15 15 16 22 24 24 24 25 25 22 22 20 20 20 20 21 21 22 22 23
26 25 23 21 19 19 19 19 18 17 15 15 14 13 13 14 14 14 15 15 15 14 15 14 14 19 23 23 24 25 24 20 20 19 18 18 18 21 21 22 23 24
25 24 23 21 20 20 19 18 16 15 15 14 15 15 14 14 14 13 13 13 14 14 17 14 13 17 22 22 24 24 24 21 20 18 18 18 18 19 21 22 23 24
25 24 23 21 20 20 19 18 16 14 13 14 15 14 13 14 13 13 12 12 13 13 15 15 13 14 18 23 23 24 25 21 19 18 17 17 18 19 18 20 22 22

ECMWFNIL_sfc_temp_024.txt.gz
Temp
45 45 45 44 44 43 42 41 41 40 39 39 38 38 37 37 36 35 34 33 33 32 31 31 30 30 30 29 29 29 28 28 27 27 27 27 26 26 26 25 25 25
45 45 44 44 43 42 43 42 41 41 40 39 39 38 37 36 35 35 34 33 32 32 31 30 30 30 29 29 28 28 28 27 27 28 27 26 26 26 26 25 25 24
44 44 43 43 43 43 42 42 41 41 40 39 39 38 36 36 34 34 34 33 32 31 30 30 30 29 29 29 28 28 28 27 26 27 27 26 25 25 25 24 24 24
44 44 44 43 43 42 42 40 40 40 39 38 38 37 37 35 34 33 33 33 32 31 30 30 30 29 29 28 28 28 27 27 27 26 26 25 25 25 24 24 24 24
43 43 43 43 43 42 40 40 39 39 39 39 38 36 35 34 34 33 32 32 31 30 30 30 29 29 28 28 28 27 26 26 25 26 25 24 24 25 24 24 23 23
42 42 42 42 41 41 40 39 39 39 38 37 37 36 35 34 34 33 32 31 31 31 30 29 29 28 28 28 27 27 26 25 25 25 25 24 23 24 25 24 23 23
42 41 41 41 40 40 40 39 39 38 38 37 36 35 35 34 34 33 32 32 31 30 30 29 28 28 28 27 27 26 25 25 25 25 24 23 23 23 24 23 23 23
42 41 41 40 39 39 39 39 38 38 37 35 35 35 35 34 34 33 32 32 31 30 30 29 29 28 27 27 26 25 24 25 24 24 24 23 23 22 22 24 23 22
41 40 39 39 39 39 38 38 38 37 36 35 35 35 34 34 34 33 32 32 31 30 29 29 28 27 27 27 26 25 24 24 24 24 23 23 22 22 22 23 22 22
40 39 38 38 38 39 38 38 37 36 35 35 35 34 33 33 33 33 32 31 30 29 29 28 27 27 26 26 26 25 24 24 24 23 23 23 23 22 22 22 22 21
39 38 38 38 38 39 38 37 36 35 34 34 34 33 33 32 32 32 31 30 30 29 28 27 27 26 25 25 25 25 24 24 23 23 23 23 22 22 23 22 22 21
38 38 38 38 38 38 38 37 36 34 34 34 34 33 32 32 31 30 30 30 29 28 28 27 26 26 25 25 24 24 24 23 23 23 22 22 22 22 22 22 21 21
39 38 39 39 38 38 38 37 35 34 33 33 33 32 31 30 30 30 29 29 28 27 27 26 26 25 24 24 23 23 23 23 22 22 22 21 21 21 21 21 21 21
39 39 39 39 38 38 37 36 35 34 33 33 32 31 31 30 29 29 28 28 27 26 26 25 25 24 23 23 22 22 22 22 21 20 20 20 20 21 21 21 22 22
40 39 38 37 36 36 35 35 34 33 32 32 31 31 31 30 29 28 26 25 25 25 24 24 24 23 23 22 21 21 21 21 20 20 20 20 20 20 21 22 22 23
39 37 36 36 35 35 34 34 33 32 30 29 29 29 28 27 27 26 26 25 24 23 23 23 23 23 24 27 25 21 20 20 19 19 21 21 21 21 22 23 23 23
37 36 36 34 35 34 33 31 31 29 28 27 27 26 25 24 25 24 24 24 23 22 22 22 22 22 27 29 28 27 21 20 18 19 21 22 22 21 21 22 23 23
37 35 34 33 33 32 31 29 28 27 26 26 25 24 24 23 23 23 23 23 23 22 21 21 21 25 29 30 30 29 25 20 19 19 20 21 22 22 22 23 23 23
35 34 32 32 31 31 29 27 26 26 25 24 24 24 22 21 22 22 21 22 22 21 20 20 19 27 30 31 30 29 27 24 20 20 20 21 22 22 23 23 23 23
33 32 31 31 30 29 28 26 25 25 25 25 23 22 21 21 21 21 21 20 20 20 20 20 18 26 30 31 31 30 29 25 20 21 21 22 22 23 23 23 24 23
32 31 31 30 28 27 26 25 25 24 24 23 22 22 21 21 20 19 19 18 18 18 18 18 19 27 30 31 31 31 30 26 21 22 22 22 23 24 24 24 24 24
31 30 29 28 27 25 25 25 24 24 23 22 22 21 21 21 20 19 18 17 17 17 17 17 19 27 30 31 32 32 32 25 22 22 22 22 22 24 24 24 24 23
30 29 28 26 25 24 23 23 23 23 23 22 21 21 20 19 18 18 18 17 17 17 17 17 18 26 30 31 32 32 31 24 23 22 22 21 21 23 23 23 23 22
29 28 27 25 24 23 23 24 24 23 23 22 21 20 19 19 19 18 18 17 17 17 18 18 18 25 31 31 32 32 29 23 22 21 20 20 20 22 21 22 22 24
26 27 27 25 24 24 24 23 22 22 22 20 21 20 19 19 18 17 17 17 17 17 21 19 18 24 31 31 32 32 28 22 22 20 19 19 19 19 21 20 22 23
25 26 25 24 24 23 23 23 23 21 19 19 20 20 19 18 17 17 16 16 17 17 19 19 18 22 27 31 30 31 28 22 21 19 17 18 18 18 18 19 20 22

ECMWFNIL_sfc_temp_030.txt.gz
Temp
46 46 46 45 44 44 43 41 41 41 40 40 40 39 39 39 38 37 37 37 37 36 35 35 34 34 34 33 32 32 32 32 31 30 30 30 30 29 30 29 28 29
45 45 45 44 43 43 43 43 42 42 41 41 41 40 39 38 38 37 37 36 36 36 35 35 34 34 33 33 32 32 31 31 31 31 30 29 30 29 29 28 28 27
44 43 44 44 44 43 43 42 41 41 41 41 40 39 39 38 37 37 37 36 36 35 35 35 34 34 33 32 32 32 32 31 30 30 29 29 29 28 28 28 27 27
43 43 44 44 43 43 42 41 40 40 40 39 39 40 38 37 37 36 36 36 36 35 35 34 34 33 33 32 32 32 32 31 31 29 29 28 28 28 27 27 27 26
42 42 43 43 43 41 40 40 40 40 40 40 39 38 38 37 36 36 36 36 36 35 34 34 33 33 33 32 32 32 31 31 30 29 29 28 28 28 28 27 26 26
40 41 42 42 42 41 40 40 40 39 39 38 39 38 38 37 37 36 36 35 36 35 34 33 33 33 32 32 31 32 32 31 30 29 29 28 27 27 28 27 26 26
39 38 39 40 39 40 40 40 39 39 39 40 37 37 38 37 37 36 36 36 35 35 35 34 33 33 33 32 32 32 32 31 30 29 29 29 27 26 27 26 26 26
39 38 38 38 39 40 39 39 39 39 39 39 38 38 37 38 37 37 36 36 35 35 35 34 34 34 33 33 32 32 31 31 30 29 29 28 27 26 26 26 26 26
38 38 38 37 38 39 39 40 40 39 39 40 39 38 37 38 37 37 36 36 36 35 35 34 34 34 34 33 33 32 32 31 30 29 29 28 27 27 26 26 26 26
38 38 38 38 38 39 40 40 41 41 40 40 40 39 37 37 37 37 36 36 35 35 35 35 34 34 34 33 33 33 32 31 30 29 29 29 28 27 27 26 26 25
39 39 39 39 40 41 40 41 41 42 42 40 39 38 37 37 37 37 36 36 35 35 35 35 34 34 33 33 33 33 33 32 30 29 29 29 28 28 28 26 26 25
40 40 40 41 41 41 41 41 42 42 42 40 39 39 38 37 37 37 36 36 36 36 36 35 35 34 33 33 33 32 32 31 30 29 29 28 28 27 27 27 26 26
39 40 41 41 41 41 42 42 42 41 41 40 39 39 38 37 37 36 36 36 36 36 36 35 34 34 33 33 32 32 31 31 29 29 28 28 28 27 27 27 27 26
39 40 40 42 42 42 41 41 41 41 40 40 38 38 38 37 36 36 36 36 36 36 35 35 34 33 33 32 32 31 31 30 30 29 28 28 27 27 27 26 26 26
40 40 40 40 39 40 40 39 39 40 39 39 38 37 38 38 37 36 35 34 35 35 35 35 34 34 33 32 31 31 31 30 30 29 28 27 26 26 26 25 25 25
38 38 38 38 38 38 38 39 38 38 37 37 37 37 36 36 36 35 35 35 34 35 35 35 34 34 34 35 34 31 30 30 29 28 27 27 26 25 24 25 25 25
37 37 37 36 37 37 36 37 37 37 36 36 36 35 34 34 34 34 34 35 34 34 34 34 34 34 35 36 36 35 31 29 27 26 26 26 25 24 23 23 23 23
35 35 34 35 35 35 35 35 35 34 34 34 34 33 33 33 33 34 34 35 34 34 34 34 34 35 36 36 37 36 34 29 28 26 25 26 25 24 24 23 23 22
34 33 33 33 33 33 33 33 32 33 33 33 33 33 33 32 32 33 33 34 34 33 33 33 33 35 36 37 37 37 36 32 28 27 26 25 25 24 24 23 22 22
33 32 32 32 32 32 31 31 31 31 33 33 32 32 32 32 32 32 33 32 33 33 33 33 33 34 36 36 36 36 36 33 27 26 25 25 25 25 24 24 23 22
32 31 31 31 31 30 30 30 31 31 31 31 32 32 32 32 32 31 31 31 31 31 31 31 32 34 36 36 36 37 36 34 27 25 25 24 25 25 25 24 24 23
31 30 30 30 30 30 29 30 31 31 31 32 31 32 32 32 32 31 30 30 30 30 30 29 30 34 35 36 36 37 36 31 26 24 23 23 22 24 24 24 24 24
31 29 28 29 29 29 29 29 30 30 31 30 29 30 30 30 30 30 30 30 29 29 28 29 28 32 35 36 36 37 35 28 24 23 22 21 21 22 23 23 24 25
31 30 28 28 27 27 28 29 30 29 29 29 29 29 29 29 29 28 28 28 28 27 28 27 26 30 34 35 36 36 33 26 24 23 21 20 20 22 23 23 25 27
31 30 30 29 28 28 28 26 26 27 28 25 25 26 27 27 25 26 25 25 25 26 28 27 25 27 34 35 36 36 33 25 23 22 20 19 20 20 22 23 24 26
32 31 30 29 28 28 27 26 25 23 23 23 22 22 22 22 22 23 23 22 23 23 24 26 24 24 29 34 35 36 34 25 23 22 20 20 20 21 21 21 23 24

ECMWFNIL_sfc_temp_033.txt.gz
Temp
47 47 47 47 47 47 47 45 45 45 45 44 44 44 43 44 44 42 42 42 42 42 42 42 42 41 40 40 39 39 39 39 39 40 39 38 39 38 37 37 38 40
46 46 46 46 46 46 46 45 44 44 44 44 45 45 44 44 43 42 42 41 42 41 42 41 41 41 40 40 39 39 39 39 38 38 37 37 38 38 37 37 38 38
44 44 44 44 45 45 45 44 44 44 44 44 44 44 43 43 42 42 42 41 41 41 41 41 40 40 40 40 39 39 39 38 38 38 37 37 38 37 38 38 37 36
43 43 44 44 44 44 44 43 42 43 43 43 43 43 42 41 42 41 41 40 40 40 40 40 40 40 40 39 38 39 39 39 39 38 37 38 37 37 37 37 36 36
42 43 43 43 44 44 43 43 42 42 42 43 43 42 42 41 40 40 40 40 40 40 40 39 40 39 39 39 38 38 39 38 39 38 37 37 37 36 37 36 35 35
40 41 42 43 43 43 42 42 42 42 41 41 42 42 42 41 41 40 40 40 40 40 40 39 39 39 39 38 38 38 38 38 38 37 36 36 36 36 35 35 35 34
40 40 40 41 41 41 42 42 42 41 41 42 42 41 41 40 40 40 40 40 40 40 40 39 39 38 38 38 38 37 38 38 37 35 35 36 36 33 34 34 34 34
39 39 39 40 40 41 41 41 41 41 42 41 41 42 41 41 41 41 40 40 40 39 40 40 39 38 38 38 37 37 37 37 37 35 35 35 35 33 33 33 34 34
38 38 39 39 39 40 40 41 42 42 41 41 42 42 42 41 41 40 40 39 39 39 39 39 39 38 38 37 37 37 36 37 37 35 34 35 34 33 32 33 32 33
39 39 38 38 38 40 40 41 41 42 41 41 42 43 42 41 41 41 40 39 39 38 39 39 38 38 37 37 37 37 37 37 37 36 36 36 34 34 33 32 32 32
40 41 40 40 39 40 40 41 41 42 42 42 42 42 42 41 40 40 40 39 39 39 39 38 38 38 37 37 37 37 37 37 37 36 36 36 36 36 34 32 32 32
39 39 39 40 40 40 40 40 41 41 41 42 41 41 41 41 40 39 39 39 39 39 39 39 39 38 38 37 37 37 37 37 37 37 36 36 36 36 35 34 32 33
38 38 39 39 39 40 41 41 41 41 40 41 41 41 41 41 40 39 39 39 39 39 39 39 38 38 38 38 38 37 37 37 37 36 36 36 36 36 36 35 34 34
37 38 38 38 38 39 38 39 39 39 40 40 40 40 40 40 40 39 40 39 39 39 39 39 38 38 38 38 38 37 37 37 37 36 36 35 35 35 35 35 34 34
37 37 38 37 37 37 37 37 38 38 38 39 39 39 39 40 40 40 39 39 39 39 39 38 38 38 38 38 37 37 36 36 36 36 36 35 35 35 35 34 34 34
36 36 36 36 36 36 36 36 36 37 36 36 37 38 38 38 38 39 39 38 38 38 38 38 38 39 38 38 38 37 36 35 35 35 35 35 34 33 33 33 33 33
35 35 35 35 35 35 34 34 35 34 34 34 35 35 35 36 36 37 37 38 38 38 37 37 38 38 38 39 39 38 36 35 33 33 33 34 34 33 32 32 32 33
34 34 33 33 33 33 33 33 33 33 33 34 34 34 35 35 35 36 36 37 37 37 37 37 37 38 39 39 39 39 37 35 34 33 32 33 34 33 33 32 31 31
33 32 31 31 31 32 32 32 32 32 33 33 33 34 34 33 34 35 35 36 36 36 36 37 37 38 39 39 39 39 39 37 34 33 32 32 33 33 33 32 31 30
33 31 31 31 31 31 31 30 30 31 32 33 33 33 33 33 33 33 34 34 34 35 36 36 36 37 38 39 38 38 39 37 34 33 32 32 33 33 33 32 31 30
33 32 31 31 31 31 30 30 30 31 31 32 33 32 32 32 33 33 33 33 33 34 34 34 36 37 38 38 39 39 39 38 34 33 32 31 32 33 33 32 31 30
32 31 30 29 30 30 30 30 31 31 31 32 32 32 32 32 32 32 32 32 33 32 32 32 35 37 37 38 38 39 39 36 35 33 31 31 30 32 32 32 31 30
31 30 30 29 29 29 29 29 30 30 31 31 30 30 31 31 30 31 32 32 31 32 31 32 33 35 37 37 38 38 38 35 34 33 32 30 30 30 30 31 30 30
30 30 30 29 29 28 29 30 31 31 31 31 29 29 30 30 30 30 30 31 30 30 31 31 31 33 35 36 37 38 37 34 34 32 31 30 29 30 29 29 29 29
28 28 28 28 29 29 29 29 29 29 30 29 28 28 28 30 29 29 29 30 30 29 30 31 31 32 34 35 36 37 36 34 34 32 30 28 28 27 27 27 27 29
25 26 27 27 28 28 28 29 29 28 28 29 28 28 28 28 28 27 26 28 28 28 28 29 29 30 31 34 35 36 37 35 33 31 28 27 27 26 24 24 26 26